TimeEDT,TemperatureF,Dew PointF,Humidity,Sea Level PressureIn,VisibilityMPH,Wind Direction,Wind SpeedMPH,Gust SpeedMPH,PrecipitationIn,Events,Conditions,WindDirDegrees,DateUTC
12:15 AM,42.8,39.2,87,29.67,3.0,NW,3.5,-,N/A,,Overcast,310,2013-04-01 04:15:00
12:35 AM,42.8,39.2,87,29.66,1.8,NNW,4.6,-,N/A,,Overcast,330,2013-04-01 04:35:00
1:15 AM,42.8,39.2,87,29.64,5.0,North,5.8,-,N/A,,Overcast,360,2013-04-01 05:15:00
1:35 AM,42.8,39.2,87,29.65,5.0,WNW,4.6,-,N/A,,Overcast,300,2013-04-01 05:35:00
1:55 AM,42.8,39.2,87,29.64,5.0,NW,5.8,-,N/A,,Overcast,310,2013-04-01 05:55:00
2:16 AM,42.8,39.2,87,29.65,4.0,WNW,3.5,-,N/A,,Overcast,300,2013-04-01 06:16:00
2:35 AM,42.8,39.2,87,29.65,5.0,Calm,Calm,-,N/A,,Overcast,0,2013-04-01 06:35:00
2:55 AM,42.8,39.2,87,29.65,7.0,WNW,5.8,-,N/A,,Overcast,290,2013-04-01 06:55:00
3:15 AM,42.8,39.2,87,29.65,10.0,WNW,4.6,-,N/A,,Overcast,300,2013-04-01 07:15:00
3:35 AM,42.8,37.4,81,29.66,8.0,WSW,4.6,-,N/A,,Overcast,240,2013-04-01 07:35:00
3:55 AM,42.8,39.2,87,29.66,5.0,WSW,3.5,-,N/A,,Overcast,240,2013-04-01 07:55:00
4:15 AM,42.8,39.2,87,29.67,5.0,WSW,5.8,-,N/A,,Overcast,250,2013-04-01 08:15:00
4:35 AM,42.8,39.2,87,29.67,5.0,WSW,5.8,-,N/A,,Overcast,250,2013-04-01 08:35:00
4:55 AM,42.8,39.2,87,29.68,6.0,West,4.6,-,N/A,,Overcast,270,2013-04-01 08:55:00
5:15 AM,42.8,39.2,87,29.68,8.0,West,6.9,-,N/A,,Overcast,260,2013-04-01 09:15:00
5:35 AM,42.8,39.2,87,29.68,8.0,West,4.6,-,N/A,,Overcast,270,2013-04-01 09:35:00
6:15 AM,42.8,39.2,87,29.69,7.0,West,6.9,-,N/A,,Overcast,270,2013-04-01 10:15:00
6:45 AM,42.8,39.2,87,29.69,7.0,West,6.9,-,N/A,,Overcast,280,2013-04-01 10:45:00
7:15 AM,42.8,39.2,87,29.69,7.0,West,4.6,-,N/A,,Partly Cloudy,280,2013-04-01 11:15:00
8:45 AM,46.4,41.0,81,29.68,10.0,West,8.1,17.3,N/A,,Clear,280,2013-04-01 12:45:00
10:45 AM,53.6,42.8,67,29.65,10.0,West,6.9,17.3,N/A,,Clear,280,2013-04-01 14:45:00
11:45 AM,55.4,41.0,58,29.64,10.0,West,10.4,20.7,N/A,,Scattered Clouds,270,2013-04-01 15:45:00
12:45 PM,57.2,39.2,51,29.63,10.0,West,12.7,23.0,N/A,,Scattered Clouds,280,2013-04-01 16:45:00
1:45 PM,57.2,39.2,51,29.61,10.0,WSW,11.5,23.0,N/A,,Mostly Cloudy,250,2013-04-01 17:45:00
2:25 PM,55.4,37.4,51,29.60,2.0,WNW,17.3,28.8,N/A,Rain,Rain,290,2013-04-01 18:25:00
3:45 PM,48.2,41.0,76,29.64,10.0,WNW,11.5,23.0,N/A,,Overcast,300,2013-04-01 19:45:00
4:45 PM,46.4,35.6,66,29.68,10.0,NW,16.1,28.8,N/A,Rain,Light Rain,320,2013-04-01 20:45:00
6:45 PM,42.8,28.4,57,29.71,10.0,North,11.5,-,N/A,,Mostly Cloudy,350,2013-04-01 22:45:00
7:45 PM,39.2,37.4,93,29.75,10.0,North,11.5,-,N/A,,Clear,350,2013-04-01 23:45:00
9:35 PM,37.4,12.2,36,29.82,10.0,NNW,8.1,-,N/A,,Clear,330,2013-04-02 01:35:00
9:55 PM,35.6,12.2,38,29.83,10.0,NNW,10.4,18.4,N/A,,Clear,330,2013-04-02 01:55:00
10:15 PM,35.6,12.2,38,29.83,10.0,NW,10.4,25.3,N/A,,Clear,310,2013-04-02 02:15:00
10:35 PM,35.6,10.4,35,29.84,10.0,WNW,12.7,19.6,N/A,,Clear,300,2013-04-02 02:35:00
10:55 PM,35.6,10.4,35,29.85,10.0,NW,10.4,18.4,N/A,,Clear,310,2013-04-02 02:55:00
11:15 PM,33.8,10.4,38,29.85,10.0,WNW,9.2,16.1,N/A,,Clear,300,2013-04-02 03:15:00
11:35 PM,33.8,10.4,38,29.85,10.0,NW,12.7,19.6,N/A,,Clear,310,2013-04-02 03:35:00
11:55 PM,33.8,10.4,38,29.86,10.0,NW,11.5,21.9,N/A,,Clear,320,2013-04-02 03:55:00